Regional Weather Roundup
Issued by NWS New Orleans/Baton Rouge, LA

Home | Current Version | Previous Version | Graphics & Text | Print | Product List | Glossary On
Versions: 1 2 3 4 5 6 7 8 9 10 11 12 13 14 15 16 17 18 19 20 21 22 23 24 25 26 27 28 29 30 31 32 33 34 35 36 37 38 39 40 41 42 43 44 45 46 47 48 49 50
951
ASUS44 KLIX 221905
RWRLIX
NEW ORLEANS REGIONAL WEATHER ROUNDUP
NATIONAL WEATHER SERVICE NEW ORLEANS LA
200 PM CDT WED OCT 22 2014

NOTE: "FAIR" INDICATES FEW OR NO CLOUDS BELOW 12,000 FEET WITH NO
      SIGNIFICANT WEATHER AND/OR OBSTRUCTIONS TO VISIBILITY.
      SKY/WX - SKY CONDITION AND SIGNIFICANT WEATHER.
      TMP - AIR TEMPERATURE.     DP    - DEWPOINT TEMPERATURE.
      RH  - RELATIVE HUMIDITY.   PRES  - PRESSURE.
      HI  - HEAT INDEX.          WCI   - WIND CHILL INDEX.

*  THESE STATIONS ARE NOT NWS OR FAA STATIONS AND ARE NOT UNDER
   NWS QUALITY CONTROL.

LAZ038-040-048-061>063-065>067-069-222000-
SOUTHEAST LOUISIANA

CITY           SKY/WX    TMP DP  RH WIND       PRES   REMARKS
N.O. AUDUBON     N/A     81  57  43 MISG        N/A
N.O. INTL ARPT SUNNY     78  54  43 N14       30.04F
N.O. LAKEFRONT SUNNY     78  55  44 N9        30.05F
N.O. DOWNTOWN*   N/A     79  54  41 N7        30.04F
SLIDELL        SUNNY     79  53  40 NE8       30.04F
BATON ROUGE    SUNNY     79  51  37 N7        30.06F
BOOTHVILLE     SUNNY     77  60  55 NE12G18   30.03F
BELLE CHASSE   SUNNY     78  53  41 E14       30.03F
BOGALUSA*        N/A     80  48  32 E8        30.07F
NEW ROADS*       N/A     78  54  43 NE8       30.07F
GONZALES*        N/A     79  56  45 E5        30.05F
HAMMOND*       SUNNY     81  43  26 NE7       30.07F
HOUMA*         SUNNY     79  55  44 NE12      30.04F
PORT FOURCHON* CLEAR     77  61  57 NE17G25   30.05F

$$

MSZ070-080>082-222000-
SOUTHERN MISSISSIPPI

CITY           SKY/WX    TMP DP  RH WIND       PRES   REMARKS
MCCOMB         SUNNY     76  46  34 NE9       30.08F
GULFPORT       SUNNY     78  50  37 N7        30.03F
BILOXI         SUNNY     79  51  38 N8        30.03F
PASCAGOULA     SUNNY     78  50  37 NE6       30.03F
STENNIS ARPT*  SUNNY     79  43  27 NE8       30.04

$$

COASTAL OBSERVATIONS
LAKE AND NEARSHORE STATIONS

STATION/POSITION TIME  TEMP    WIND        PRES    WAVE
                       AIR SEA DIR/SP/G            HT/PER
                 (UTC) (F)     (DEG/KT/KT) (MB)    (FT/S)
PASCAGOULA       1900   77      30/  9/ 13 1016.4
WAVELAND YACHT   1900   75      30/  5/  6 1016.4
GRAND ISLE       1900   75 75   60/ 13/ 16 1017.2
SOUTHWEST PASS   1900   84 83   60/ 13/ 16 1016.6
NEW CANAL        1900   73 72   40/  9/ 10 1017.7
SHELL BEACH      1900   73 70   40/ 12/ 16 1017.2

OFFSHORE STATIONS

STATION/POSITION TIME  TEMP    WIND        PRES    WAVE
                       AIR SEA DIR/SP/G            HT/PER
                 (UTC) (F)     (DEG/KT/KT) (MB)    (FT/S)
64 S DAUPHIN ISL 1818   75 80   50/ 14/ 17 1017.0    3/ 5

$$




USA.gov is the U.S. government's official web portal to all federal, state and local government web resources and services.